Location: Nebula Knoll Observatory
(43.6666°N, 71.0000°W)
Time: 03:16:49
(UTC-05:00)

Daily predictions for brighter satellites

Satellite Brightness Start Highest point End
(mag) Time Altitude Azimuth Time Altitude Azimuth Time Altitude Azimuth
USA 234 4.2 03:28:15 10° E 03:33:26 40° NE 03:33:26 40° NE
Cosmos 2360 Rocket 4.4 04:06:53 14° NNE 04:09:40 19° NE 04:13:37 10° E
Cosmos 1980 Rocket 3.4 04:14:52 32° SSE 04:14:52 32° SSE 04:17:50 10° SSE
IDEFIX/ARIANE 42P 4.2 04:22:31 10° NNE 04:27:12 32° E 04:31:51 10° SSE
Timation 2 Rocket 4.1 04:28:20 26° SSW 04:32:35 84° ESE 04:39:29 10° NNE
ATLAS 5 CENTAUR R/B 4.4 04:37:46 12° N 04:39:55 14° NNE 04:43:06 10° NE
USA 267 3.2 04:35:13 10° NE 04:41:40 65° NNW 04:42:45 57° WNW
Cosmos 1538 Rocket 3.9 04:42:17 47° SSW 04:43:52 88° ESE 04:49:13 10° NNE
COSMO-SKYMED 1 2.9 04:39:42 10° SSE 04:43:59 63° ENE 04:44:38 54° NNE
Meteor 2-4 Rocket 3.8 04:47:13 55° SW 04:47:13 55° SW 04:51:53 10° S
Okean 2 4.3 04:46:29 31° NNE 04:48:00 46° ENE 04:51:58 10° SSE
SL-16 R/B 2.2 04:51:39 38° NNW 04:53:55 82° ENE 04:59:35 10° SSE
Okean-O 2.8 04:51:47 10° NNE 04:56:14 71° ESE 05:00:38 10° S
Cosmos 2322 Rocket 2.1 04:56:14 36° NNW 04:58:42 86° ENE 05:04:23 10° SSE
Okean 1 Rocket 3.2 04:54:32 10° S 04:58:54 74° E 05:03:20 10° NNE
CZ-4C R/B 2.0 05:01:48 47° WSW 05:03:15 67° NW 05:09:17 10° NNE
Meteor 2-20 4.5 04:58:16 10° SSW 05:04:09 50° WNW 05:10:05 10° N
Meteor 1-11 Rocket 4.0 05:06:57 43° W 05:07:17 44° WNW 05:12:51 10° N
Meteor 1-4 Rocket 2.6 05:03:54 10° S 05:07:41 82° E 05:11:30 10° NNE
BREEZE-M DEB (TANK) 3.3 05:10:42 49° WSW 05:11:22 58° SSW 05:17:20 10° SE
SeaSat 1 2.6 05:08:22 10° NNE 05:13:06 48° WNW 05:13:59 43° W
Feng Yun 1-1 Rocket 4.2 05:07:30 10° NNE 05:13:20 78° WNW 05:18:58 10° SSW
PAYLOAD A 4.1 05:08:01 10° NNE 05:13:29 87° E 05:18:49 10° SSW
ATLAS CENTAUR R/B 4.4 05:11:32 10° SE 05:13:37 14° ESE 05:15:41 10° ENE
SKYMED 3 4.5 05:09:45 10° S 05:14:02 62° WSW 05:15:03 47° NW
USA 234 3.2 05:10:29 10° SE 05:17:03 78° SW 05:20:47 28° NW
EO 1 Del DPAF 3.1 05:13:21 10° S 05:17:08 63° WSW 05:17:32 59° WNW
Cosmos 1184 Rocket 3.1 05:16:19 37° N 05:17:26 66° ENE 05:20:45 10° SSE
CZ-2C R/B 2.5 05:16:15 10° NNE 05:21:05 73° ESE 05:25:45 10° S
Cosmos 2082 Rocket 4.0 05:25:07 14° NNW 05:25:07 14° NNW 05:26:44 10° N
Meteor 1-5 Rocket 4.3 05:18:51 10° SSW 05:24:01 45° WNW 05:29:08 10° N
deb Kosmos-1763 4.1 05:24:47 52° WNW 05:24:52 52° WNW 05:28:32 10° N
Cosmos 1500 3.1 05:28:12 10° SSW 05:32:00 59° W 05:35:48 10° N
SKYMED 2 4.0 05:28:02 10° SSW 05:32:05 39° W 05:33:15 32° WNW
NOAA 6 4.2 05:31:26 10° N 05:36:20 46° WNW 05:41:14 10° SW
Cosmos 1340 Rocket 4.5 05:38:24 10° N 05:42:02 33° ENE 05:45:39 10° SE
Nadezhda 4 Rocket 4.5 05:36:56 10° SW 05:42:24 33° WNW 05:47:54 10° N
Cosmos 1271 Rocket 3.7 05:43:21 10° S 05:46:58 47° E 05:50:36 10° NNE
Cosmos 2333 Rocket 4.0 05:47:06 10° N 05:52:00 28° NE 05:56:52 10° ESE
COSMOS 2441 4.3 05:49:01 10° N 05:53:51 71° WNW 05:58:37 10° SSW
Cosmos 389 Rocket 2.6 05:50:27 10° S 05:54:04 80° E 05:57:40 10° NNE
Cosmos 1455 Rocket 3.5 05:49:57 10° S 05:54:21 66° E 05:58:47 10° NNE
Cosmos 2360 Rocket 2.2 05:48:41 10° NNW 05:54:23 81° WSW 06:00:03 10° SSE
Cosmos 2285 Rocket 3.9 05:48:12 10° SSW 05:54:29 70° WNW 06:00:48 10° NNE
COSMOS 2428 3.6 05:49:48 10° NNW 05:55:21 48° ENE 06:00:53 10° SE
Cosmos 1066 Rocket 4.1 05:51:47 10° NNW 05:57:04 60° W 06:02:24 10° S
Cosmos 1624 Rocket 4.4 05:51:57 10° NNW 05:57:18 69° ENE 06:02:37 10° SSE
SMAP 3.7 05:53:22 10° NNE 05:58:00 60° E 06:02:35 10° S
Cosmos 1544 Rocket 3.7 05:54:18 10° S 05:58:45 80° E 06:03:12 10° N
Cosmos 1025 Rocket 4.0 05:59:07 16° NW 06:01:28 26° W 06:05:02 10° SW
Cosmos 1680 Rocket 3.5 05:57:31 10° SW 06:02:36 55° WNW 06:07:45 10° NNE
Cosmos 2219 Rocket 3.5 05:57:50 10° N 06:03:06 37° NE 06:08:18 10° ESE
CZ-4 R/B 2.5 05:59:24 10° NNE 06:03:31 51° E 06:07:38 10° S
Okean 1-7 Rocket 4.2 05:59:23 10° NNW 06:03:31 35° W 06:07:38 10° SSW
Cosmos 1666 2.6 06:00:18 10° S 06:04:08 86° W 06:07:57 10° N
IDEFIX/ARIANE 42P 3.2 06:02:07 10° N 06:06:46 34° WNW 06:11:25 10° SW
BREEZE-M DEB (TANK) 2.5 06:06:51 17° W 06:08:37 60° NNW 06:13:37 10° ENE
S3M 4.0 06:06:04 10° N 06:12:16 76° W 06:18:31 10° S
Cosmos 1371 Rocket 4.0 06:14:23 10° NNW 06:19:33 64° WSW 06:24:39 10° S
Aureole 2 Rocket 2.5 06:17:07 10° NNW 06:20:27 66° ENE 06:23:29 10° SSE
COSMO-SKYMED 1 4.4 06:18:38 10° WSW 06:20:33 13° W 06:21:52 11° WNW
Cosmos 2237 Rocket 3.9 06:16:07 10° N 06:21:00 28° NE 06:25:50 10° ESE
USA 267 4.1 06:18:23 10° NE 06:23:59 32° NNW 06:29:36 10° WNW
Cosmos 1975 3.7 06:20:37 10° SW 06:24:03 28° WNW 06:27:32 10° NNW
ATLAS 5 CENTAUR R/B 3.3 06:20:28 10° NNW 06:26:03 44° NE 06:32:12 10° ESE
CSL-04 Debris 4.2 06:22:10 10° NNE 06:27:38 79° WNW 06:33:05 10° SSW
Thor Agena Rocket 4.0 06:23:40 10° SSW 06:28:23 39° W 06:33:10 10° NNW
ERBS 4.4 06:26:09 10° NNW 06:28:33 18° NNE 06:30:56 10° ENE
Okean-O 4.3 06:30:02 10° NNW 06:32:08 13° WNW 06:34:14 10° W
Cosmos 2219 3.8 06:27:52 10° S 06:33:27 63° ESE 06:39:01 10° NNE
SL-16 R/B 3.9 06:34:16 10° WNW 06:37:13 14° W 06:40:10 10° SW
Meteor 2-9 Rocket 4.3 06:33:18 10° S 06:39:10 85° W 06:44:58 10° N
Cosmos 1356 Rocket 4.2 06:35:25 10° N 06:39:27 53° ENE 06:43:30 10° SSE
METEOR-M 4.5 06:34:35 10° NNE 06:39:58 74° ESE 06:45:19 10° S
Cosmos 2266 Rocket 3.9 06:33:55 10° S 06:40:01 79° W 06:46:05 10° N
